Location: Donzy-le-Pr�
(47.3659°N, 3.1107°E)
Time: 10:25:50
(UTC+00:00)

USA 234 - Pass Details

Date: 03 March 2021
Orbit: 1102 x 1105 km, 123.0° (Epoch: 18 April)

Event Time Altitude Azimuth Distance (km) Brightness Sun altitude
Exits shadow 21:27:20 50° 325° (NW) 1,374 3.9 -37.8°
Drops below altitude 10° 21:33:06 10° 266° (W) 2,961 5.9 -38.6°
Sets 21:35:39 0° 262° (W) 3,918 6.6 -38.9°
